Flag for Marshall Islands Weather past 2 weeks in Majuro, Marshall Islands

Now
79 °F

Sprinkles. Overcast.


Feels Like: 83 °F
Forecast: 80 / 85 °F
Wind: 2 mph from North

Location: Majuro Atoll

Current Time: Jul 30, 2014 at 1:27:32 AM

Latest Report: Jul 30, 2014 at 12:54 AM


Visibility: 12 mi

Pressure: 29.89 "Hg

Humidity: 93%

Dew point: 76 °F

Location of MajuroLocation

Historic Weather in Majuro — Graph

°F

Majuro temperature yesterday

Maximum temperature yesterday: 85 °F (at 12:50 PM)
Minimum temperature yesterday: 77 °F (at 5:52 AM)
Average temperature yesterday: 81 °F

Past Weeks' High & Low Weather Summary

 TemperatureHumidityPressure
High88 °F (Jul 17, 2:53 PM)96% (Jul 29, 5:52 AM)29.91 "Hg (Jul 29, 5:52 AM)
Low77 °F (Jul 15, 7:56 AM)68% (Jul 23, 12:51 PM)29.71 "Hg (Jul 17, 3:50 PM)
Average82 °F83%29.81 "Hg
* Reported Jul 14 11:55 PM — Jul 29 11:51 PM, Majuro, Weather by CustomWeather, © 2014

Note: Actual official high and low records may vary slightly from our data, if they occured in-between our weather recording intervals... More about our weather records

Advertising

Majuro weather history for previous 24 hours

 ConditionsComfort  
Time TempWeatherWind HumidityBarometerVisibility
11:51 PM
Jul 29
79 °FLight rain. Overcast.5 mph91%29.90 "Hg14 mi
10:53 PM81 °FOvercast.2 mph84%29.91 "Hg15 mi
9:50 PM80 °FSprinkles. Overcast.No wind87%29.91 "Hg10 mi
8:55 PM81 °FLight rain. Overcast.6 mph87%29.90 "Hg14 mi
7:52 PM82 °FLight rain. Cloudy.3 mph84%29.88 "Hg14 mi
6:55 PM82 °FRain. Cloudy.7 mph82%29.86 "Hg14 mi
3:53 PM82 °FCloudy.12 mph86%29.83 "Hg15 mi
2:53 PM83 °FCloudy.16 mph83%29.83 "Hg15 mi
1:54 PM85 °FBroken clouds.13 mph77%29.85 "Hg15 mi
12:50 PM85 °FBroken clouds.10 mph76%29.86 "Hg15 mi
11:54 AM84 °FMore clouds than sun.10 mph76%29.88 "Hg15 mi
10:54 AM83 °FCloudy.10 mph81%29.89 "Hg15 mi
9:52 AM81 °FCloudy.8 mph84%29.90 "Hg15 mi
8:55 AM80 °FCloudy.9 mph87%29.90 "Hg15 mi
7:53 AM79 °FCloudy.9 mph91%29.87 "Hg15 mi
6:54 AM78 °FRain. Mostly cloudy.5 mph94%29.85 "Hg12 mi
5:52 AM77 °FSprinkles. Overcast.8 mph96%29.85 "Hg6 mi
4:53 AM78 °FLots of rain. Mostly cloudy.10 mph94%29.84 "Hg1 mi
3:54 AM80 °FLight rain. Overcast.9 mph90%29.82 "Hg14 mi
2:56 AM80 °FOvercast.3 mph90%29.82 "Hg15 mi
1:56 AM80 °FLight rain. Overcast.No wind91%29.83 "Hg14 mi
Weather by CustomWeather, © 2014

See weather overviewHow to use our weather pages